Weather History for Gillette, WY

Change the Weather History Date:

Wednesday, December 26, 2012

  Actual Average Record
Temperature  
Mean Temperature 13 °F 24 °F  
Max Temperature 23 °F 36 °F 55 °F (1972)
Min Temperature 2 °F 13 °F -25 °F (1996)
Degree Days  
Heating Degree Days 52 41  
Month to date heating degree days 971 1063  
Since 1 July heating degree days 2587 2938  
Cooling Degree Days 0 0  
Month to date cooling degree days 0 0  
Year to date cooling degree days 795 502  
Moisture  
Dew Point 11 °F    
Average Humidity 82    
Maximum Humidity 96    
Minimum Humidity 67    
Precipitation  
Precipitation 0.14 in 0.01 in 0.60 in (1943)
Month to date precipitation 0.36 0.34  
Year to date precipitation 9.37 13.83  
Sea Level Pressure  
Sea Level Pressure 29.82 in    
Wind  
Wind Speed 8 mph (SSE)    
Max Wind Speed 17 mph    
Max Gust Speed 22 mph    
Visibility 5 miles    
Events Snow    
T = Trace of Precipitation, MM = Missing Value Source: NWS Daily Summary

Daily Weather History Graph

Daily Weather History Graph

Search for Another Location

Airport:

Trip Planner

Search our weather history database for the weather conditions in past years. The results will help you decide how hot, cold, wet, or windy it might be!

Date:

Astronomy

Dec. 26, 2012 Rise Set
Actual Time 7:37 AM MST 4:29 PM MST
Civil Twilight 7:03 AM MST 5:02 PM MST
Nautical Twilight 6:27 AM MST 5:39 PM MST
Astronomical Twilight 5:51 AM MST 6:14 PM MST
Moon 3:25 PM MST (12/26) 6:01 AM MST (12/26)
Length of Visible Light 9h 58m
Length of Day
8h 51m
Waxing Gibbous, 98% of the Moon is Illuminated
Dec 26
Waxing Gibbous
Dec 28
Full
Jan 4
Last Quarter
Jan 11
New
Jan 18
First Quarter

Hourly Weather History & Observations

Time (MST) Temp. Windchill Dew Point Humidity Pressure Visibility Wind Dir Wind Speed Gust Speed Precip Events Conditions
12:53 AM 3.9 °F -6.9 °F -0.0 °F 84% 30.12 in 10.0 mi SE 5.8 mph - N/A   Clear
1:53 AM 3.0 °F -8.0 °F -0.9 °F 84% 30.11 in 10.0 mi SSE 5.8 mph - N/A   Clear
2:53 AM 3.9 °F -10.4 °F -0.0 °F 84% 30.09 in 10.0 mi SSE 9.2 mph - N/A   Clear
3:53 AM 6.1 °F -5.6 °F 1.0 °F 80% 30.05 in 10.0 mi SSE 6.9 mph - N/A   Clear
4:53 AM 8.6 °F -4.7 °F 3.2 °F 79% 29.81 in 10.0 mi SSE 9.2 mph - N/A   Overcast
5:53 AM 7.0 °F -5.7 °F 3.0 °F 84% 30.02 in 10.0 mi SSE 8.1 mph - N/A   Clear
6:53 AM 8.1 °F -7.7 °F 3.0 °F 80% 30.00 in 10.0 mi South 12.7 mph - N/A   Clear
7:53 AM 10.0 °F -7.1 °F 3.9 °F 76% 29.99 in 10.0 mi SSE 16.1 mph - N/A   Mostly Cloudy
8:53 AM 12.0 °F 5.9 °F 5.0 °F 73% 29.98 in 10.0 mi Variable 3.5 mph - N/A   Scattered Clouds
9:53 AM 15.1 °F 2.5 °F 8.1 °F 74% 29.97 in 10.0 mi SSE 10.4 mph - N/A   Overcast
10:53 AM 19.0 °F 5.6 °F 10.9 °F 71% 29.93 in 10.0 mi SSE 13.8 mph - N/A   Overcast
11:53 AM 19.9 °F 7.9 °F 14.0 °F 78% 29.89 in 10.0 mi SE 11.5 mph - N/A   Overcast
12:53 PM 21.0 °F 11.4 °F 16.0 °F 81% 29.86 in 10.0 mi SSE 8.1 mph - N/A   Overcast
1:53 PM 21.9 °F 13.4 °F 15.1 °F 75% 29.84 in 10.0 mi SSE 6.9 mph - N/A   Overcast
2:53 PM 19.9 °F 8.6 °F 14.0 °F 78% 29.85 in 10.0 mi South 10.4 mph - N/A   Overcast
3:53 PM 19.9 °F 9.3 °F 12.9 °F 74% 29.83 in 5.0 mi South 9.2 mph - N/A   Haze
4:02 PM 19.4 °F 9.5 °F 14.0 °F 80% 29.65 in 1.8 mi South 8.1 mph - 0.01 in Snow Light Snow
4:11 PM 19.4 °F 10.4 °F 14.0 °F 80% 29.65 in 3.0 mi South 6.9 mph - 0.01 in Snow Light Snow
4:18 PM 19.4 °F 8.6 °F 15.8 °F 86% 29.65 in 2.0 mi South 9.2 mph - 0.01 in Snow Light Snow
4:37 PM 17.6 °F 4.3 °F 15.8 °F 93% 29.66 in 1.8 mi South 12.7 mph - 0.01 in Snow Light Snow
4:53 PM 18.0 °F 4.2 °F 15.1 °F 88% 29.84 in 1.0 mi South 13.8 mph - 0.02 in Snow Light Snow
5:05 PM 17.6 °F 6.4 °F 15.8 °F 93% 29.67 in 1.2 mi South 9.2 mph - 0.00 in Snow Light Snow
5:21 PM 17.6 °F - 15.8 °F 93% 29.66 in 1.8 mi Calm Calm - 0.01 in Snow Light Snow
5:53 PM 17.1 °F 11.7 °F 15.1 °F 92% 29.85 in 1.8 mi SSE 3.5 mph - 0.02 in Snow Light Snow
6:14 PM 17.6 °F 10.7 °F 14.0 °F 86% 29.66 in 3.0 mi SSE 4.6 mph - 0.01 in Snow Light Snow
6:29 PM 17.6 °F - 15.8 °F 93% 29.66 in 1.8 mi Calm Calm - 0.01 in Snow Light Snow
6:53 PM 17.1 °F - 15.1 °F 92% 29.84 in 1.5 mi Calm Calm - 0.02 in Snow Light Snow
7:21 PM 17.6 °F - 15.8 °F 93% 29.66 in 2.5 mi Calm Calm - 0.01 in Snow Light Snow
7:34 PM 17.6 °F - 15.8 °F 93% 29.66 in 1.5 mi Calm Calm - 0.01 in Snow Light Snow
7:53 PM 17.1 °F - 15.1 °F 92% 29.83 in 1.8 mi Calm Calm - 0.02 in Snow Light Snow
8:53 PM 14.0 °F 5.1 °F 12.0 °F 92% 29.85 in 1.5 mi NNW 5.8 mph - 0.03 in Snow Light Snow
9:33 PM 14.0 °F 5.1 °F 12.2 °F 93% 29.66 in 2.0 mi North 5.8 mph - 0.01 in Snow Light Snow
9:53 PM 12.9 °F 2.6 °F 10.9 °F 92% 29.84 in 2.0 mi North 6.9 mph - 0.01 in Snow Light Snow
10:11 PM 12.2 °F 2.9 °F 10.4 °F 92% 29.67 in 2.5 mi NNW 5.8 mph - 0.01 in Snow Light Snow
10:18 PM 12.2 °F 2.9 °F 10.4 °F 92% 29.67 in 3.0 mi NNW 5.8 mph - 0.01 in Snow Light Snow
10:29 PM 12.2 °F 2.9 °F 10.4 °F 92% 29.67 in 2.5 mi NNW 5.8 mph - 0.01 in Snow Light Snow
10:53 PM 12.0 °F 1.5 °F 10.0 °F 92% 29.84 in 3.0 mi NNW 6.9 mph - 0.01 in Snow Light Snow
11:53 PM 10.9 °F 2.9 °F 9.0 °F 92% 29.84 in 4.0 mi North 4.6 mph - 0.01 in   Overcast